[[{"header":{"parameterUnit":"m.s-1","parameterCategory":1,"la1":30.2991,"la2":30.254,"lo1":-89.0895,"lo2":-89.0444,"dy":0.0017,"dx":0.0017,"nx":28,"ny":28,"refTime":"2025-09-03T09:00:00:Z","depth":0,"parameterNumber":2,"parameterNumberName":"U-component_of_WINDS"},"data":[0,0,0,0,0,0,0,0,0,0,0,0,0,0,0,0,0,0,0,0,0,0,0,0,0,0,0,0,0,0,0,0,0,0,0,0,0,0,0,0,0,0,0,0,0,0,0,0,0,0,0,0,0,0,0,0,0,0,-0.2201,-0.2201,0,-0.2207,-0.2207,-0.2207,-0.2205,-0.2205,-0.2204,-0.2204,-0.2211,-0.2211,-0.2211,0,0,0,0,0,0,0,0,0,0,0,0,0,-0.2186,-0.2187,-0.2201,-0.2201,-0.2201,-0.2207,-0.2207,-0.2207,-0.2205,-0.2205,-0.2204,-0.2204,-0.2211,-0.2211,-0.2211,0,0,0,0,0,0,0,0,0,0,0,0,0,-0.2193,-0.2187,-0.2201,-0.22,-0.22,-0.2207,-0.2207,-0.2207,-0.2205,-0.2205,-0.2204,-0.2204,-0.2211,-0.2211,-0.2212,-0.2219,0,0,-0.2213,-0.2213,0,0,0,0,0,0,0,0,-0.2192,-0.2193,-0.22,-0.22,-0.22,-0.2205,-0.2205,-0.2211,-0.2205,-0.2203,-0.2204,-0.2204,-0.2209,-0.221,-0.2211,-0.2219,-0.222,-0.2213,-0.2213,-0.2213,-0.2214,0,0,0,0,0,0,0,-0.2192,-0.2193,-0.2203,-0.22,-0.22,-0.22,-0.2201,-0.2206,-0.2207,-0.2203,-0.2203,-0.2204,-0.2209,-0.2211,-0.2211,-0.222,-0.2213,-0.2213,-0.2214,-0.2214,-0.2235,-0.2235,0,0,0,0,0,0,-0.2191,-0.2193,-0.2203,-0.2203,-0.2196,-0.22,-0.2201,-0.2204,-0.2207,-0.2207,-0.2204,-0.2204,-0.221,-0.2211,-0.2212,-0.2221,-0.2213,-0.2214,-0.2214,-0.2234,-0.2235,-0.2235,0,0,0,0,0,0,-0.2191,-0.2192,-0.2203,-0.2198,-0.2199,-0.2201,-0.2204,-0.2204,-0.2206,-0.2208,-0.2208,-0.2206,-0.221,-0.2211,-0.2217,-0.2221,-0.2214,-0.2215,-0.2234,-0.2235,-0.2235,-0.224,0,0,0,0,0,0,-0.2191,-0.2192,-0.2195,-0.2198,-0.2199,-0.2208,-0.2204,-0.2204,-0.2207,-0.2206,-0.2209,-0.221,-0.221,-0.2217,-0.2218,-0.2222,-0.2215,-0.2234,-0.2234,-0.2235,-0.2239,-0.224,-0.2241,0,0,0,0,0,-0.219,-0.2196,-0.2195,-0.2196,-0.2203,-0.2208,-0.2209,-0.2209,-0.2207,-0.221,-0.2211,-0.221,-0.2221,-0.2217,-0.2219,-0.2223,-0.2233,-0.2234,-0.2235,-0.2239,-0.224,-0.2241,0,0,0,0,0,0,-0.2193,-0.2196,-0.2196,-0.2202,-0.2205,-0.2208,-0.2212,-0.2211,-0.2214,-0.2214,-0.2214,-0.2214,-0.2221,-0.2222,-0.2219,-0.2231,-0.2227,-0.2228,-0.223,-0.2231,-0.2232,-0.2231,-0.2215,0,0,0,0,0,-0.2195,-0.2199,-0.2201,-0.2207,-0.2209,-0.221,-0.2212,-0.2212,-0.2215,-0.2216,-0.2218,-0.2221,-0.2225,-0.2228,-0.2232,-0.2239,-0.224,-0.2243,-0.2244,-0.2245,-0.2246,-0.2251,-0.2252,-0.2237,-0.2237,-0.2237,0,0,-0.2198,-0.22,-0.2203,-0.2208,-0.221,-0.2215,-0.2211,-0.2216,-0.2219,-0.2217,-0.2223,-0.2225,-0.2228,-0.2235,-0.2238,-0.2237,-0.225,-0.2246,-0.2246,-0.2247,-0.2251,-0.2253,-0.2254,-0.2237,-0.2237,-0.2237,0,0,-0.2206,-0.2208,-0.2213,-0.2216,-0.2219,-0.222,-0.2221,-0.2224,-0.2225,-0.2232,-0.223,-0.2234,-0.2241,-0.2244,-0.2246,-0.2256,-0.2255,-0.2257,-0.2262,-0.2267,-0.2268,-0.2269,-0.2273,-0.2275,-0.2258,-0.2258,-0.2258,0,-0.221,-0.2216,-0.2216,-0.2222,-0.2224,-0.2222,-0.2228,-0.223,-0.2235,-0.2237,-0.2234,-0.2244,-0.2246,-0.2254,-0.2256,-0.2258,-0.226,-0.2257,-0.2268,-0.2269,-0.227,-0.2274,-0.2275,-0.2258,-0.2258,-0.2258,-0.2258,0,-0.2221,-0.2226,-0.223,-0.2234,-0.2237,-0.2243,-0.2244,-0.2247,-0.2246,-0.2247,-0.2254,-0.2256,-0.2261,-0.2263,-0.2262,-0.2271,-0.227,-0.2268,-0.2264,-0.2272,-0.2275,-0.2277,-0.2259,-0.2258,-0.2258,-0.2258,0,0,-0.2231,-0.2236,-0.2238,-0.224,-0.2244,-0.2248,-0.2253,-0.2258,-0.2261,-0.2264,-0.2269,-0.2275,-0.2273,-0.2276,-0.2275,-0.2279,-0.2288,-0.2277,-0.2277,-0.2279,-0.2298,-0.23,-0.2302,-0.2287,-0.2287,-0.2287,-0.2298,0,-0.224,-0.225,-0.225,-0.2259,-0.2264,-0.2263,-0.2267,-0.227,-0.2272,-0.2276,-0.2277,-0.2282,-0.2279,-0.228,-0.2284,-0.2286,-0.2292,-0.2285,-0.2292,-0.2292,-0.2292,-0.2304,-0.2306,-0.2316,-0.23,-0.23,-0.23,0,-0.2252,-0.2256,-0.2266,-0.2269,-0.2271,-0.2276,-0.228,-0.2284,-0.2288,-0.2288,-0.2291,-0.2291,-0.2297,-0.2292,-0.2301,-0.2296,-0.2299,-0.23,-0.2301,-0.2302,-0.2297,-0.2306,-0.232,-0.2321,-0.2302,-0.2302,-0.2302,0,-0.226,-0.2267,-0.2274,-0.2276,-0.228,-0.2284,-0.2286,-0.2289,-0.2292,-0.2296,-0.2298,-0.2302,-0.2305,-0.2309,-0.2309,-0.2306,-0.2318,-0.2313,-0.2319,-0.2319,-0.2322,-0.2322,-0.2337,-0.2323,-0.2323,-0.2323,-0.2323,0,-0.227,-0.2276,-0.2278,-0.2282,-0.2289,-0.2289,-0.2296,-0.2298,-0.2301,-0.2306,-0.2304,-0.2309,-0.2309,-0.2314,-0.2314,-0.2322,-0.2323,-0.2324,-0.2324,-0.2324,-0.2324,-0.2326,-0.2326,-0.2323,-0.2323,-0.2323,-0.2323,0,-0.228,-0.2281,-0.2289,-0.2292,-0.2293,-0.2298,-0.2301,-0.2306,-0.2307,-0.2313,-0.2314,-0.2316,-0.2322,-0.2323,-0.2329,-0.233,-0.2339,-0.2338,-0.2337,-0.2338,-0.2343,-0.2343,-0.2361,-0.2364,-0.2347,-0.2347,-0.2347,0,-0.2287,-0.2292,-0.2296,-0.2299,-0.2301,-0.2306,-0.2309,-0.231,-0.2313,-0.2318,-0.2322,-0.2327,-0.2332,-0.2341,-0.2343,-0.2348,-0.2347,-0.2353,-0.2348,-0.2349,-0.2348,-0.2348,-0.2349,-0.2354,-0.2355,-0.2355,-0.2355,0,-0.2299,-0.23,-0.2304,-0.231,-0.2313,-0.2317,-0.2321,-0.2324,-0.2325,-0.2329,-0.2334,-0.2338,-0.2345,-0.235,-0.2356,-0.2358,-0.2357,-0.2356,-0.2358,-0.2359,-0.2359,-0.236,-0.2341,-0.2356,-0.2356,-0.2356,-0.2356,-0.2356,-0.2308,-0.2313,-0.2317,-0.2322,-0.2325,-0.2329,-0.2333,-0.2335,-0.234,-0.2346,-0.2345,-0.2352,-0.2356,-0.2363,-0.2365,-0.237,-0.2368,-0.2371,-0.2371,-0.2372,-0.2373,-0.2357,-0.2371,-0.2371,-0.2371,-0.2371,-0.2371,0,-0.2321,-0.2324,-0.2329,-0.2334,-0.2339,-0.2337,-0.2341,-0.2345,-0.2351,-0.2355,-0.2359,-0.2366,-0.2372,-0.2374,-0.238,-0.2384,-0.2383,-0.2385,-0.2385,-0.2386,-0.2374,-0.2372,-0.2385,-0.2385,-0.2385,-0.2385,-0.2385,-0.2385,-0.2329,-0.2336,-0.2337,-0.2347,-0.2349,-0.2355,-0.2358,-0.2362,-0.2365,-0.2373,-0.2377,-0.2379,-0.2382,-0.2388,-0.2393,-0.2394,-0.2396,-0.2399,-0.2399,-0.2388,-0.2387,-0.2385,-0.2384,-0.2399,-0.2399,-0.2411,-0.2411,-0.2411]},{"header":{"parameterUnit":"m.s-1","parameterCategory":1,"la1":30.2991,"la2":30.254,"lo1":-89.0895,"lo2":-89.0444,"dy":0.0017,"dx":0.0017,"nx":28,"ny":28,"refTime":"2025-09-03T09:00:00:Z","depth":0,"parameterNumber":3,"parameterNumberName":"V-component_of_WINDS"},"data":[0,0,0,0,0,0,0,0,0,0,0,0,0,0,0,0,0,0,0,0,0,0,0,0,0,0,0,0,0,0,0,0,0,0,0,0,0,0,0,0,0,0,0,0,0,0,0,0,0,0,0,0,0,0,0,0,0,0,3.0851,3.0852,0,3.0872,3.0873,3.0873,3.0834,3.0832,3.0831,3.083,3.0851,3.0853,3.0855,0,0,0,0,0,0,0,0,0,0,0,0,0,3.0775,3.0777,3.0851,3.0852,3.0852,3.0872,3.0873,3.0873,3.0834,3.0832,3.0831,3.0829,3.0851,3.0853,3.0855,0,0,0,0,0,0,0,0,0,0,0,0,0,3.0804,3.0777,3.0851,3.0835,3.0834,3.0872,3.0873,3.0873,3.0834,3.0832,3.083,3.0829,3.085,3.0852,3.0855,3.0911,0,0,3.0863,3.0864,0,0,0,0,0,0,0,0,3.0802,3.0806,3.0837,3.0836,3.0835,3.0848,3.0854,3.0886,3.0835,3.0834,3.083,3.0828,3.0852,3.0854,3.0862,3.0912,3.0913,3.0863,3.0865,3.0866,3.0867,0,0,0,0,0,0,0,3.08,3.0805,3.086,3.0837,3.0836,3.0826,3.0828,3.0859,3.0854,3.0834,3.0831,3.0834,3.0851,3.086,3.0863,3.0913,3.0863,3.0866,3.0867,3.0868,3.1005,3.1007,0,0,0,0,0,0,3.08,3.0804,3.0859,3.086,3.0813,3.0829,3.0831,3.0846,3.0853,3.0852,3.0836,3.0832,3.0856,3.086,3.0863,3.0926,3.0866,3.0869,3.087,3.1003,3.1006,3.1008,0,0,0,0,0,0,3.0799,3.0806,3.0858,3.0831,3.0837,3.0832,3.085,3.0847,3.0856,3.0855,3.0853,3.0846,3.0855,3.0859,3.0898,3.0926,3.087,3.0872,3.1001,3.1004,3.1007,3.1054,0,0,0,0,0,0,3.0797,3.0805,3.0827,3.0832,3.0839,3.0894,3.0851,3.0849,3.0861,3.0857,3.0864,3.0863,3.0854,3.0895,3.0901,3.0929,3.0874,3.0998,3.1002,3.1006,3.105,3.1058,3.1065,0,0,0,0,0,3.0794,3.084,3.0828,3.0835,3.0866,3.0895,3.0899,3.0887,3.0864,3.0885,3.0883,3.0863,3.0923,3.0899,3.0906,3.0935,3.0997,3.1001,3.1006,3.1046,3.1057,3.1065,0,0,0,0,0,0,3.0839,3.0841,3.0827,3.0877,3.0886,3.0889,3.0915,3.0899,3.0915,3.091,3.0895,3.0897,3.0938,3.0941,3.0914,3.0988,3.0956,3.0962,3.0984,3.0994,3.1002,3.0999,3.0877,0,0,0,0,0,3.0855,3.0879,3.0879,3.0922,3.0927,3.0921,3.0933,3.0923,3.0932,3.0936,3.0937,3.0947,3.0967,3.0981,3.1,3.1051,3.105,3.1074,3.1082,3.1088,3.1093,3.1117,3.1127,3.1023,3.1023,3.1023,0,0,3.0887,3.0891,3.0907,3.0931,3.0937,3.0961,3.0924,3.0952,3.097,3.094,3.0976,3.0978,3.0987,3.1031,3.1051,3.1035,3.1122,3.1094,3.1099,3.11,3.1123,3.1133,3.1141,3.1026,3.1026,3.1025,0,0,3.0958,3.0964,3.0999,3.1006,3.1015,3.101,3.1018,3.1023,3.1023,3.1059,3.1036,3.1057,3.1093,3.11,3.1108,3.1179,3.116,3.1186,3.1226,3.125,3.1258,3.1265,3.1288,3.1296,3.1192,3.1192,3.1192,0,3.0996,3.1032,3.1019,3.1048,3.1058,3.1032,3.1066,3.1073,3.1089,3.1096,3.1078,3.1121,3.1126,3.117,3.1187,3.1196,3.1203,3.1184,3.1258,3.1265,3.1271,3.1293,3.1302,3.1194,3.1194,3.1194,3.1194,0,3.1078,3.1103,3.1131,3.1145,3.1158,3.119,3.118,3.1195,3.1184,3.118,3.1216,3.1221,3.1239,3.1249,3.1239,3.1291,3.128,3.1261,3.1227,3.1284,3.1304,3.1312,3.1199,3.1197,3.1197,3.1196,0,0,3.1178,3.1183,3.1193,3.1197,3.1205,3.1224,3.1254,3.1271,3.1283,3.1295,3.1318,3.1348,3.1329,3.1339,3.1329,3.135,3.1402,3.1327,3.1327,3.1338,3.1457,3.147,3.148,3.1391,3.1392,3.1394,3.1455,0,3.1245,3.1296,3.1284,3.1333,3.1355,3.133,3.1355,3.1362,3.1359,3.1377,3.1374,3.1395,3.137,3.1374,3.1394,3.1392,3.1425,3.1387,3.141,3.1411,3.1406,3.149,3.1505,3.1563,3.1463,3.1464,3.1465,0,3.1331,3.1344,3.1395,3.1397,3.1406,3.1429,3.1442,3.146,3.1467,3.1463,3.1473,3.1458,3.1486,3.1454,3.1491,3.1465,3.1474,3.1474,3.1476,3.1476,3.144,3.149,3.1581,3.1589,3.1478,3.1477,3.1476,0,3.1395,3.1426,3.1459,3.1465,3.1468,3.1484,3.1487,3.1492,3.1502,3.1514,3.152,3.1536,3.1544,3.1556,3.1545,3.1523,3.1583,3.1551,3.1579,3.1579,3.1591,3.159,3.1682,3.1601,3.1601,3.1601,3.16,0,3.147,3.1502,3.1487,3.1508,3.1542,3.1528,3.1562,3.1561,3.1565,3.1584,3.1565,3.1583,3.1569,3.1586,3.1578,3.1608,3.1613,3.161,3.1607,3.161,3.161,3.1614,3.1608,3.1603,3.1602,3.1602,3.1602,0,3.1546,3.1538,3.1573,3.1573,3.1573,3.1598,3.1598,3.1616,3.1612,3.1636,3.1641,3.1634,3.1652,3.1643,3.1664,3.1658,3.1696,3.1689,3.1694,3.1691,3.1718,3.1715,3.1814,3.1825,3.1739,3.174,3.1741,0,3.1594,3.1617,3.1619,3.163,3.1633,3.1652,3.1662,3.1648,3.1659,3.1668,3.1685,3.1701,3.1714,3.1745,3.1741,3.1756,3.1747,3.1781,3.1749,3.1751,3.1744,3.1742,3.1743,3.1787,3.1788,3.1789,3.1789,0,3.1678,3.1672,3.1687,3.17,3.1712,3.1722,3.173,3.174,3.1727,3.174,3.1758,3.1768,3.1787,3.1803,3.1816,3.1817,3.18,3.18,3.1806,3.1809,3.1809,3.1806,3.1708,3.1797,3.1796,3.1795,3.1795,3.1795,3.1739,3.1758,3.1761,3.1777,3.1782,3.1789,3.1805,3.1802,3.1817,3.1831,3.1823,3.1844,3.1848,3.1863,3.1866,3.1882,3.1868,3.1879,3.1881,3.1883,3.1885,3.1808,3.1885,3.1884,3.1884,3.1884,3.1884,0,3.182,3.182,3.1836,3.1846,3.1859,3.1842,3.185,3.1861,3.1879,3.1885,3.1897,3.1917,3.1932,3.1929,3.1943,3.1955,3.1948,3.1959,3.1957,3.1957,3.1898,3.189,3.1965,3.1965,3.1965,3.1965,3.1965,3.1965,3.1863,3.1892,3.1887,3.1917,3.1917,3.1937,3.1942,3.1948,3.1952,3.1975,3.1987,3.1985,3.1986,3.1999,3.2012,3.2011,3.2016,3.2029,3.2025,3.197,3.1962,3.1954,3.1945,3.2031,3.2031,3.2082,3.2082,3.2083]}]]